User: anonymous   Login
Location: Camps Bay
(33.9517°S, 18.3844°E)
Time: 22:53:24
(UTC+00:00)
Language:

UNK - Orbit

View from above orbital plane
View from above orbital plane
View from above satellite
View from above satellite

Ground track
Ground track

The orbit data is extracted from the following two-line orbital elements,

1 27940U 03042B   20093.34494469  .00000051  00000-0  18321-4 0  9993
2 27940  98.0982 225.2783 0012826 292.1095  67.8747 14.65147867882350
Epoch (UTC): 02 April 2020 08:16:43
Eccentricity: 0.0012826
inclination: 98.0982°
perigee height: 667 km
apogee height: 685 km
right ascension of ascending node: 225.2783°
argument of perigee: 292.1095°
revolutions per day: 14.65147867
mean anomaly at epoch: 67.8747°
orbit number at epoch: 88235

The dashed part of the orbit path shows where the satellite is in the earth's shadow,  

DLR